794  
ASUS45 KABQ 181910  
RWRNM  
NEW MEXICO REGIONAL WEATHER ROUNDUP  
NATIONAL WEATHER SERVICE ALBUQUERQUE NM  
100 PM MDT TUE SEP 18 2018  
 
NOTE: "FAIR" MEANS FEW OR NO CLOUDS BELOW 12,000 FEET AGL WITH NO  
SIGNIFICANT WEATHER OR S TO VISION.  
 
THIS PRODUCT IS RELEASED AS TWO VERSIONS. ONE VERSION NEAR  
THE TOP OF THE HOUR CONTAINING PRELIMINARY DATA FROM ALBUQUERQUE  
AND OTHER STATIONS. A FINAL VERSION WITH ADDITIONAL DATA IS  
ISSUED ABOUT 10 MINUTES AFTER THE HOUR.  
 
NMZ501-503-504-510>518-182000-  
NORTHWEST PLATEAU/NORTHCENTRAL MOUNTAINS  
 
CITY SKY/WX TMP DP RH WIND PRES REMARKS
 
FARMINGTON FAIR 86 42 21 SW7 30.10F  
LOS ALAMOS FAIR 80 35 19 N6 30.24F  
SANTA FE FAIR 85 45 24 W7 30.16F  
TAOS FAIR 83 39 21 VRB7G16 30.23F  
ANGEL FIRE FAIR 76 32 20 W13G23 30.32F  
 

 
NMZ402-403-502-505>509-182000-  
WESTCENTRAL MOUNTAINS/SOUTHWEST MOUNTAINS  
 
CITY SKY/WX TMP DP RH WIND PRES REMARKS
 
GALLUP FAIR 85 42 22 VRB5 30.19F  
GRANTS FAIR 83 40 21 CALM 30.20F  
SILVER CITY FAIR 82 56 40 CALM 30.12F  
 

 
NMZ407-409-411-412-182000-  
SOUTHERN DESERTS  
 
CITY SKY/WX TMP DP RH WIND PRES REMARKS
 
DEMING FAIR 86 58 38 MISG 30.05F  
LAS CRUCES FAIR 85 57 38 W5 30.06F  
ALAMOGORDO FAIR 84 59 42 SW8 30.05F  
T OR C FAIR 86 56 35 VRB6 30.07F  
 

 
NMZ519>523-182000-  
CENTRAL VALLEYS/CENTRAL HIGHLANDS  
 
CITY SKY/WX TMP DP RH WIND PRES REMARKS
 
ALBUQUERQUE FAIR 83 54 36 W8 30.11F  
DOUBLE EAGLE MOSUNNY 82 54 36 SW5 30.15F  
MORIARTY ARPT FAIR 87 45 22 N7 30.16F  
CLINES CORNERS FAIR 84 37 18 NW8G20 30.22F  
BELEN FAIR 86 45 23 SW6 30.09F  
SOCORRO FAIR 86 51 29 SE10 30.07F  
 

 
NMZ524>526-539-540-182000-  
SOUTHCENTRAL MOUNTAINS  
 
CITY SKY/WX TMP DP RH WIND PRES REMARKS
 
RUIDOSO N/A 77 48 36 NW7 30.23F  
 

 
NMZ527>531-182000-  
NORTHEAST HIGHLANDS/NORTHEAST PLAINS  
 
CITY SKY/WX TMP DP RH WIND PRES REMARKS
 
LAS VEGAS FAIR 84 37 18 SE9 30.18F  
RATON FAIR 88 41 19 S13 30.09F  
CLAYTON FAIR 86 58 38 S18G28 30.02F  
 

 
NMZ532>537-182000-  
EASTCENTRAL PLAINS  
 
CITY SKY/WX TMP DP RH WIND PRES REMARKS
 
SANTA ROSA FAIR 81 62 52 SE15G21 30.06F  
TUCUMCARI FAIR 86 63 45 S15 30.00F  
CANNON AFB NOT AVBL  
CLOVIS AIRPORT FAIR 81 63 54 S18G24 30.07F  
 

 
NMZ028-029-538-182000-  
SOUTHEAST PLAINS  
 
CITY SKY/WX TMP DP RH WIND PRES REMARKS
 
ROSWELL FAIR 83 64 52 S9 30.02F  
ARTESIA FAIR 82 66 57 SE14 30.02F  
CARLSBAD FAIR 83 66 56 VRB6 30.00F  
HOBBS CLOUDY 79 64 61 S9G17 30.07F  
 

 
 
 
CLICK HERE TO GO TO PREVIOUS BULLETINS.

The Nexlab NM Page Main Text Page